Wind_Speed
15 15 14 14 13 13 13 13 12 13 13 13 14 14 15 16 16 17 18 18 19 20 20 21 21 22 22 23 23 24 24 24 24 24 24 24 24 24 24 24 25 25 26 26 26 27 26 27 28 29 29 29 29 28 27 26 26 26 26 27 27 27 28
15 15 15 14 14 14 14 14 13 13 14 14 14 15 15 16 17 17 18 19 19 20 21 22 22 23 23 23 24 24 25 25 25 25 25 25 25 25 25 25 25 25 26 27 27 27 27 27 28 29 29 29 29 29 28 27 26 27 28 28 28 28 29
15 15 15 14 14 14 14 14 14 14 14 15 15 15 16 16 17 17 18 19 20 20 21 22 23 23 24 24 25 25 26 26 26 26 26 26 26 26 26 26 26 27 27 27 27 27 27 27 27 28 29 29 29 30 29 28 27 27 27 28 29 29 29
15 15 15 15 14 14 14 15 15 15 15 15 15 15 16 16 17 18 18 19 20 21 22 23 23 24 25 25 25 26 26 26 27 27 26 26 27 27 27 27 27 28 28 28 28 29 29 29 28 28 30 30 29 30 31 29 28 28 27 27 27 29 30
16 16 15 15 15 15 15 15 15 15 15 15 15 15 16 16 17 18 19 20 22 23 23 24 24 25 26 26 26 26 27 27 27 27 28 27 27 28 28 28 28 29 29 29 29 29 30 30 30 29 30 31 30 30 32 32 30 30 30 29 28 28 30
16 16 16 16 16 16 16 16 17 17 17 16 15 16 16 17 18 19 21 22 23 24 25 26 26 27 27 27 28 28 28 28 28 28 29 29 29 29 29 30 30 30 30 31 30 30 30 31 31 30 30 32 31 31 32 33 32 31 31 32 31 29 29
17 17 17 16 17 17 17 18 18 18 18 17 17 17 18 19 20 21 22 23 25 26 27 27 28 29 29 29 30 30 30 30 30 30 30 30 30 30 30 30 31 31 32 32 32 32 32 32 32 32 31 32 32 32 32 33 33 32 32 33 33 32 31
18 18 18 18 18 18 18 18 19 19 19 19 19 20 20 21 22 23 24 25 26 27 28 29 29 30 30 31 31 31 31 32 32 32 32 32 32 32 32 32 32 33 33 34 34 34 34 34 34 34 33 33 33 32 32 33 33 33 34 34 33 34 34
20 20 19 19 19 19 19 19 19 20 20 20 21 21 22 23 24 25 25 26 28 29 29 30 30 31 31 31 32 32 33 33 33 33 33 33 33 33 34 34 34 35 35 35 35 35 36 36 36 36 35 35 34 33 33 33 33 33 34 35 34 34 35
20 20 20 20 20 20 20 20 20 20 21 21 22 23 23 24 25 25 26 28 29 30 30 31 31 31 32 32 33 33 34 34 34 34 34 34 34 34 35 35 36 36 37 37 37 37 38 38 37 37 37 37 37 36 35 34 33 33 34 36 35 34 35
19 19 20 21 21 21 20 20 20 21 21 22 22 23 23 24 25 26 27 29 30 31 31 31 31 32 32 33 33 34 34 34 34 34 35 35 35 36 36 36 37 37 38 38 39 39 40 40 40 39 39 39 39 39 38 36 33 32 35 36 36 36 36
19 20 20 21 21 21 20 20 21 21 22 22 22 22 23 24 25 27 29 30 31 31 31 31 32 32 33 33 33 33 33 34 34 34 34 35 35 36 37 37 38 38 38 39 40 40 41 41 41 41 42 42 42 41 41 40 36 32 35 38 37 37 37
20 20 20 20 20 20 20 21 21 21 22 22 22 22 23 25 27 28 30 30 31 31 31 31 32 32 33 32 32 33 33 33 33 34 34 35 35 36 37 38 38 39 40 40 41 41 42 42 42 43 43 43 44 44 43 43 41 35 35 38 39 38 38
20 20 20 20 20 21 21 22 22 23 23 23 23 24 25 26 28 30 31 31 32 31 31 31 32 32 32 32 32 32 33 33 34 35 35 36 37 37 38 39 39 40 41 41 42 43 43 44 44 44 45 45 45 45 45 45 44 40 37 39 41 40 40
21 21 21 21 22 22 23 23 24 24 25 24 24 25 27 29 30 31 32 33 32 32 31 32 32 32 32 32 33 33 34 35 35 36 37 38 38 39 40 40 41 41 42 42 43 44 44 44 45 45 45 46 46 46 47 47 46 44 41 40 43 43 42
21 22 22 23 23 24 24 25 25 26 26 26 26 27 29 30 31 32 33 33 32 32 32 33 33 34 34 34 34 35 35 36 37 38 39 39 40 40 41 42 42 43 43 44 44 45 45 45 46 46 46 47 47 47 48 49 49 48 45 43 44 45 45
22 23 24 24 24 25 26 26 27 27 27 27 28 29 30 31 32 33 33 33 32 32 33 34 34 35 35 35 36 36 37 38 39 39 40 40 41 41 42 43 43 44 44 45 45 46 46 46 46 47 47 48 48 49 49 50 51 51 49 46 45 47 47
23 24 24 25 25 26 27 28 28 28 28 28 29 31 32 33 33 34 34 33 33 33 34 35 35 35 36 36 37 38 38 39 40 40 41 42 42 43 44 44 45 45 46 46 47 47 47 48 48 48 49 49 49 50 50 51 52 52 52 50 47 47 48
23 24 25 26 27 28 29 29 29 29 29 30 31 32 33 34 34 35 35 34 34 34 35 35 36 36 37 37 38 39 40 40 41 42 43 43 44 45 45 46 46 47 47 48 48 49 49 49 49 50 50 50 50 51 51 51 52 53 53 52 50 47 48
23 24 26 27 28 29 30 30 31 31 31 31 32 33 34 35 36 36 35 35 35 35 36 36 37 37 37 38 39 40 41 42 42 43 44 45 46 46 46 47 47 48 48 49 49 50 50 50 50 51 51 52 51 51 52 52 52 53 53 53 52 50 49
23 25 26 27 29 30 31 32 32 32 32 33 33 34 35 36 37 37 36 35 36 37 37 37 37 38 38 38 39 40 41 42 43 44 45 46 46 47 47 48 48 48 49 49 50 50 51 51 51 51 51 52 53 53 53 53 53 53 54 54 53 53 52
23 25 26 28 30 31 32 33 33 33 33 34 35 36 36 37 37 37 36 36 37 37 38 37 37 37 38 39 40 40 41 43 44 45 45 46 46 47 47 47 48 48 49 50 51 51 52 52 52 52 53 53 53 54 54 54 54 54 54 54 54 54 53
25 26 27 29 31 32 34 34 34 34 34 35 36 37 37 37 37 36 36 37 38 38 38 37 37 38 38 39 40 41 42 43 44 44 45 45 46 46 46 47 47 48 49 50 51 52 53 55 55 55 56 56 56 56 55 55 55 55 55 55 55 55 54
27 28 29 30 32 34 35 36 35 35 36 37 38 38 37 37 36 36 37 38 38 38 38 37 38 38 39 40 41 42 43 44 44 44 45 45 45 46 46 47 48 48 49 50 51 52 53 54 55 56 57 58 58 58 58 58 57 57 57 56 56 55 55
29 30 31 32 33 35 36 37 37 37 38 39 39 38 37 36 36 36 37 38 38 38 37 37 38 38 40 41 42 43 43 44 44 44 45 45 46 47 48 49 49 50 51 51 51 52 52 52 53 54 55 56 58 59 60 60 60 60 59 58 57 55 55
30 30 31 32 34 36 38 39 39 39 40 40 39 38 36 35 36 37 38 38 38 37 37 37 38 40 41 42 43 43 43 44 44 45 46 47 48 49 50 50 51 51 51 52 51 51 51 51 51 52 53 54 55 57 58 59 60 61 61 60 59 57 55
30 30 31 33 36 38 40 41 41 41 40 40 38 36 34 34 35 37 38 38 37 37 37 38 39 41 42 42 42 43 43 44 45 46 47 48 49 50 51 51 51 51 51 51 50 50 50 50 50 52 53 54 55 56 57 58 59 59 60 60 60 59 57
32 32 32 33 36 40 42 43 41 40 40 39 36 33 32 34 35 36 37 37 36 36 37 39 40 41 41 41 42 42 43 44 46 47 48 49 50 50 50 50 50 50 49 49 49 49 49 50 51 52 53 55 56 57 58 59 59 59 59 59 59 59 58
35 35 34 33 36 39 42 41 40 39 38 35 31 30 32 33 35 35 36 36 35 36 38 39 40 40 40 40 41 42 43 45 46 47 48 48 48 48 48 48 48 48 48 48 48 49 49 50 51 52 54 55 57 59 60 61 61 61 60 59 57 57 57
35 33 32 32 34 37 39 39 38 36 34 30 29 30 32 33 34 34 34 35 36 37 39 39 39 39 39 40 41 42 44 45 46 47 47 46 46 46 45 46 46 46 47 47 47 48 49 50 51 52 54 55 57 58 59 60 61 61 60 59 57 55 53
31 29 28 30 33 35 35 35 33 31 29 28 29 31 31 32 33 33 33 35 37 38 38 37 37 38 39 40 41 43 44 45 45 45 44 44 44 43 43 44 44 44 45 45 45 46 47 49 50 51 52 53 54 54 54 54 54 54 54 53 53 52 49
26 26 27 30 31 31 30 29 28 27 27 28 29 31 31 32 32 33 34 36 37 37 36 36 37 38 39 40 41 42 43 43 42 41 41 41 41 42 42 42 42 42 42 42 43 45 45 47 47 48 50 51 50 48 45 44 44 44 43 40 39 40 40
21 22 24 26 26 26 26 25 25 26 27 29 30 30 31 31 32 33 35 35 35 35 35 36 37 38 39 40 41 41 41 39 39 38 39 39 40 40 41 40 40 40 40 41 42 43 44 45 46 48 50 50 44 38 35 37 38 32 26 23 24 26 27
20 20 21 23 23 24 24 24 25 27 28 29 29 30 30 31 32 33 34 34 34 34 35 36 37 38 39 40 39 38 37 36 36 36 37 38 39 39 39 38 38 39 39 40 41 42 43 45 47 50 51 46 37 30 31 36 32 21 16 21 24 19 14
20 21 21 22 22 23 23 25 26 27 28 28 28 29 30 31 32 32 32 32 33 34 35 36 37 38 38 38 36 35 34 34 34 35 36 38 38 38 37 37 37 38 39 39 40 41 43 45 47 51 51 42 30 26 31 34 25 16 18 25 26 17 11
20 21 21 21 22 23 24 25 26 26 27 27 28 29 30 31 31 31 31 32 33 34 35 36 37 37 36 35 33 32 32 33 34 35 36 37 36 36 36 36 36 37 38 38 40 41 43 45 48 50 50 40 28 25 29 31 23 18 20 23 23 17 13
20 20 21 21 22 23 24 25 25 26 26 27 28 29 29 29 30 30 31 32 33 34 36 36 36 35 33 32 30 30 31 32 33 35 35 36 35 35 35 35 35 36 37 38 39 41 43 45 47 49 49 41 30 26 27 28 26 23 22 21 20 17 12
Wind_Direction
240 243 248 254 258 262 267 273 279 283 287 291 293 296 298 300 301 302 302 303 304 305 306 307 308 309 310 310 310 309 309 308 308 308 309 310 310 310 310 309 309 310 310 310 310 311 312 311 308 307 307 308 309 309 308 306 303 301 301 300 295 288 284
244 247 251 255 260 264 268 271 274 278 282 286 289 292 294 296 298 299 301 302 304 305 306 307 308 309 310 310 310 309 309 309 309 309 309 309 309 309 308 308 308 307 307 307 308 309 310 310 309 308 307 306 308 308 307 306 305 303 301 301 298 293 285
247 250 252 255 261 267 270 272 274 278 282 285 288 291 293 295 298 300 302 303 305 306 307 308 308 308 308 309 309 309 309 309 309 309 308 308 307 307 307 306 306 306 306 306 306 307 307 307 308 307 307 307 307 306 304 306 307 305 301 299 298 296 290
249 252 255 259 265 270 274 276 277 279 282 285 288 292 295 298 301 303 304 306 307 308 308 308 308 308 307 307 308 308 308 307 307 307 306 305 305 305 305 304 304 304 304 305 305 305 305 306 306 306 306 306 308 306 303 304 306 306 303 300 297 296 293
252 255 258 264 269 273 276 278 277 278 279 283 288 292 297 300 302 304 305 307 308 308 308 307 306 306 305 305 305 305 305 304 305 304 304 304 303 303 303 303 303 302 302 302 302 302 303 303 303 304 304 304 306 306 305 304 305 305 305 302 298 296 294
255 258 262 267 272 275 276 276 275 275 276 281 286 291 295 298 301 303 305 306 306 306 306 305 304 303 302 302 302 302 302 302 302 302 302 302 302 302 302 302 302 301 301 301 301 300 299 300 300 300 301 301 302 304 304 304 304 304 304 302 302 300 295
259 263 267 270 273 274 275 274 274 275 277 281 284 289 292 295 298 301 302 303 303 303 303 303 302 302 301 300 300 300 300 300 300 300 300 300 300 301 300 300 300 300 300 300 300 299 298 298 297 297 297 297 298 299 300 301 302 303 302 300 301 300 298
263 266 269 270 271 272 273 273 274 276 278 281 284 287 290 293 296 299 300 301 302 303 303 302 302 301 300 299 299 298 298 298 298 298 298 298 298 298 298 298 298 298 298 298 298 298 297 297 296 295 295 294 294 294 295 296 298 301 300 298 299 299 298
264 265 267 268 270 271 272 274 275 278 280 282 285 287 290 293 296 298 300 301 302 302 302 302 301 300 299 298 298 297 297 296 296 296 296 296 296 297 296 297 296 296 296 296 296 296 295 295 295 295 294 293 293 291 290 291 294 296 297 297 298 298 297
263 266 268 269 269 271 272 274 277 280 282 284 286 288 291 294 296 299 301 302 302 302 302 301 301 300 299 298 297 296 296 296 296 296 296 296 296 296 296 296 295 295 295 295 294 294 294 294 293 293 293 292 292 291 290 289 289 291 292 293 295 296 296
264 267 269 269 270 272 274 276 279 281 283 285 287 289 292 295 298 300 302 303 303 303 302 301 301 300 300 299 298 297 297 296 296 296 296 297 297 296 296 295 295 294 293 293 293 292 292 292 292 291 291 290 290 290 290 289 288 288 288 289 291 292 293
264 267 269 271 273 274 277 278 280 282 284 286 289 291 295 297 300 302 302 303 303 303 302 301 300 300 300 300 300 299 299 298 298 298 297 297 297 296 296 295 295 294 293 292 292 291 290 290 290 290 289 289 289 288 288 288 287 286 286 286 287 288 289
264 267 270 272 274 276 278 280 283 286 287 289 291 294 298 300 301 302 303 303 302 301 300 299 300 301 301 301 301 301 301 300 300 299 299 298 297 296 296 295 294 294 293 292 291 290 290 289 288 288 288 287 287 287 286 286 286 285 284 284 284 284 285
263 266 270 274 277 279 281 284 287 289 290 292 295 298 300 301 303 304 303 303 301 300 299 299 301 302 303 303 302 302 302 301 301 300 299 299 298 297 296 295 294 293 292 291 290 289 289 288 287 287 286 286 286 285 285 285 285 284 282 282 283 282 282
264 269 273 276 278 280 283 286 288 290 293 295 297 300 302 304 305 305 305 304 303 301 300 302 304 305 305 304 303 303 303 302 301 301 300 299 298 297 296 295 294 293 292 291 289 288 288 287 286 286 285 285 284 284 284 283 283 282 281 280 281 281 280
267 271 273 275 277 279 282 285 287 291 293 296 298 300 302 304 305 306 306 306 304 304 304 306 307 307 306 305 304 304 303 303 302 301 300 299 299 298 297 295 294 293 292 291 290 289 288 287 286 286 285 284 284 283 283 282 282 281 280 279 279 279 279
267 269 271 273 276 279 282 285 288 291 293 296 298 300 302 304 306 307 307 307 306 306 307 308 308 308 307 306 305 305 304 303 303 302 301 300 300 299 297 296 295 294 293 292 291 290 289 288 287 286 285 284 283 282 282 282 281 281 280 278 277 278 278
267 269 271 274 277 280 282 284 287 289 292 294 296 299 302 304 306 307 307 307 307 308 309 309 308 307 307 306 306 305 305 305 304 303 303 302 301 301 300 299 298 296 295 294 293 292 291 289 288 287 285 284 283 282 281 280 280 280 280 279 277 276 276
267 270 272 275 277 279 280 283 285 287 290 293 295 298 301 304 305 306 307 307 308 308 308 308 307 307 307 307 306 306 306 306 306 305 305 304 303 302 301 300 299 298 296 295 294 293 292 291 289 288 287 285 284 282 281 280 279 279 278 278 277 275 275
270 272 274 275 276 278 279 281 284 286 288 291 294 298 300 302 304 305 306 307 308 308 307 307 306 306 307 307 307 307 307 307 307 306 305 305 303 302 301 300 299 298 297 296 294 293 292 291 290 290 288 287 286 284 282 281 279 278 277 276 276 274 273
271 273 274 275 276 277 279 280 282 284 287 290 293 296 299 301 303 305 306 307 307 307 306 306 306 307 307 308 308 308 308 307 307 306 305 304 304 303 302 301 300 299 298 296 295 294 293 292 290 289 289 287 286 285 284 282 280 279 278 276 275 273 271
274 274 275 276 276 276 278 279 281 283 286 289 291 294 297 300 303 305 306 306 306 306 305 306 306 307 307 307 307 307 306 306 305 305 305 304 303 302 302 301 300 300 299 298 298 296 295 293 291 290 288 287 286 285 283 282 280 279 277 276 275 273 271
276 276 276 275 275 275 276 278 279 282 285 287 289 291 296 299 301 303 304 305 304 304 304 305 306 306 306 306 306 305 305 305 305 305 304 304 304 303 303 302 302 302 301 301 300 299 298 297 295 293 291 289 287 286 284 283 281 279 277 276 274 272 271
276 276 275 274 274 274 275 277 278 280 282 284 286 290 295 298 300 302 303 303 302 303 304 305 305 306 306 305 305 305 306 306 306 306 306 306 306 305 305 305 304 303 303 302 301 300 299 298 297 296 295 293 291 289 287 285 283 282 279 277 275 272 270
277 276 275 273 272 272 273 274 275 276 278 280 283 289 294 296 298 300 301 301 301 302 304 305 305 305 305 306 306 306 307 307 308 308 308 308 308 308 308 307 306 305 304 303 302 301 300 299 298 297 296 295 294 293 291 289 287 285 282 280 277 274 271
277 277 276 272 270 270 270 270 270 272 274 277 282 288 292 295 297 299 300 300 301 302 304 304 305 305 306 306 307 308 309 309 310 311 311 311 310 310 309 309 308 307 306 305 304 303 301 300 299 298 297 295 294 293 292 290 289 287 285 282 279 276 273
278 279 278 274 271 270 268 267 266 268 272 277 283 288 290 293 296 298 299 300 301 302 303 304 304 305 306 307 308 310 311 312 312 313 312 312 311 311 310 310 309 308 307 306 305 304 302 301 300 299 298 296 295 294 292 290 289 287 285 283 280 278 274
279 280 279 275 272 270 268 266 266 269 275 280 284 287 290 293 296 297 298 300 301 302 303 304 305 306 307 309 310 312 313 313 313 313 313 312 312 311 311 310 309 309 308 307 306 305 304 303 302 301 300 299 298 297 295 293 290 288 285 282 279 277 274
278 278 277 275 272 270 268 267 269 274 279 283 285 288 291 293 295 297 298 299 301 302 303 304 306 308 309 311 312 313 314 314 313 313 313 312 312 312 312 311 311 310 310 309 309 309 308 307 306 305 304 303 302 301 299 297 294 291 288 284 280 276 272
278 276 274 274 272 270 268 269 273 278 282 285 287 290 292 294 295 297 298 299 301 302 304 306 308 310 311 312 313 314 314 314 313 313 313 313 313 313 313 313 313 313 313 313 313 313 312 311 310 309 308 306 305 303 300 298 295 292 289 285 281 276 271
275 275 274 273 270 269 270 272 277 281 284 288 290 291 293 294 296 297 298 300 302 303 306 308 309 311 312 313 314 314 314 314 314 314 314 314 314 315 315 317 317 317 317 317 317 316 315 314 312 311 310 309 308 305 302 298 295 293 291 288 284 279 272
273 275 274 271 268 269 273 276 280 284 287 290 291 292 294 295 296 298 299 301 303 305 308 309 310 312 312 313 314 314 314 314 314 315 315 316 317 319 320 320 321 321 320 319 319 318 317 316 316 316 317 317 315 311 306 304 302 300 297 293 288 281 275
274 274 272 270 270 273 277 280 284 287 289 290 291 292 294 295 296 298 300 302 305 307 309 310 311 312 313 314 314 314 314 315 315 316 317 319 321 322 323 323 323 323 322 322 322 322 322 323 324 325 327 326 322 318 315 317 316 312 308 311 306 290 276
273 272 271 272 274 278 281 285 287 288 288 289 290 292 294 295 298 300 302 305 307 309 310 311 312 313 313 314 314 314 315 315 317 319 321 323 324 325 325 325 326 326 326 326 327 329 330 332 334 336 337 334 328 327 331 331 328 322 325 341 338 314 274
272 272 273 275 278 281 284 285 285 286 287 289 291 292 294 297 299 302 304 307 308 310 311 311 312 313 313 313 314 314 316 317 320 322 324 325 326 327 328 329 329 330 331 332 334 336 337 339 342 344 344 338 330 330 338 339 335 327 329 340 342 321 257
272 273 274 277 280 282 282 283 284 285 288 289 291 294 296 299 302 304 306 308 309 310 311 311 312 312 312 313 315 316 318 321 323 325 326 327 328 329 331 333 334 335 336 338 340 342 343 345 348 350 349 342 327 322 335 341 338 326 326 338 343 326 269
272 274 275 277 279 280 280 282 284 286 288 290 293 296 299 302 304 306 308 309 309 310 310 311 311 312 313 315 317 319 322 324 326 327 328 329 331 333 335 337 337 339 342 344 346 347 348 350 353 354 354 348 334 323 331 343 344 333 325 332 345 341 297
Height
5814 5814 5815 5816 5816 5817 5817 5818 5818 5818 5818 5818 5818 5818 5817 5817 5817 5816 5816 5815 5814 5813 5813 5812 5811 5810 5809 5808 5807 5806 5805 5804 5802 5801 5800 5798 5797 5796 5795 5793 5792 5790 5789 5788 5787 5785 5784 5783 5781 5779 5778 5777 5775 5774 5774 5773 5771 5770 5769 5768 5768 5767 5767
5813 5813 5814 5814 5815 5815 5816 5816 5816 5816 5817 5817 5816 5816 5816 5816 5815 5815 5814 5813 5813 5812 5811 5810 5809 5808 5807 5806 5805 5804 5802 5801 5800 5798 5797 5795 5794 5793 5792 5791 5789 5788 5787 5785 5784 5783 5781 5780 5779 5777 5775 5774 5773 5772 5771 5770 5769 5767 5765 5764 5764 5763 5763
5811 5812 5813 5813 5814 5814 5814 5815 5815 5815 5815 5815 5815 5814 5814 5814 5813 5813 5812 5811 5811 5810 5809 5808 5807 5806 5805 5804 5803 5801 5800 5799 5797 5796 5794 5793 5791 5790 5789 5788 5787 5785 5784 5783 5781 5780 5779 5778 5777 5775 5773 5772 5771 5769 5768 5767 5766 5765 5763 5762 5761 5759 5758
5810 5811 5812 5812 5813 5813 5813 5813 5814 5814 5814 5813 5813 5813 5813 5812 5812 5811 5810 5810 5809 5808 5807 5806 5805 5804 5803 5802 5801 5799 5798 5796 5795 5794 5792 5791 5789 5788 5786 5785 5784 5782 5781 5780 5779 5777 5776 5775 5774 5772 5770 5769 5768 5766 5764 5764 5763 5762 5761 5760 5758 5756 5755
5809 5810 5810 5811 5812 5812 5812 5812 5812 5813 5813 5812 5812 5811 5811 5810 5810 5809 5808 5808 5807 5806 5805 5804 5803 5802 5800 5799 5798 5797 5796 5794 5793 5791 5790 5789 5787 5785 5784 5782 5781 5779 5778 5777 5776 5775 5773 5772 5771 5770 5768 5766 5765 5764 5761 5760 5759 5758 5757 5756 5755 5754 5752
5808 5809 5809 5810 5810 5810 5811 5811 5811 5811 5811 5811 5810 5810 5809 5808 5808 5807 5806 5806 5805 5804 5803 5802 5801 5799 5798 5797 5795 5794 5793 5792 5790 5789 5787 5786 5784 5783 5781 5779 5778 5776 5775 5774 5772 5771 5770 5769 5767 5767 5765 5763 5762 5761 5759 5757 5756 5755 5753 5751 5750 5750 5749
5807 5807 5808 5808 5808 5809 5809 5809 5809 5809 5809 5809 5808 5807 5807 5806 5805 5805 5804 5803 5802 5801 5800 5799 5798 5796 5795 5794 5793 5791 5790 5788 5787 5786 5784 5783 5781 5780 5778 5777 5775 5774 5772 5770 5769 5768 5766 5765 5764 5763 5762 5760 5758 5757 5756 5754 5753 5752 5751 5748 5747 5746 5745
5805 5806 5806 5806 5807 5807 5807 5807 5807 5807 5806 5806 5806 5805 5805 5804 5803 5802 5801 5800 5799 5798 5797 5796 5794 5793 5792 5791 5789 5788 5787 5785 5784 5782 5781 5779 5778 5776 5775 5773 5772 5770 5769 5767 5765 5764 5762 5761 5760 5758 5757 5756 5755 5754 5753 5751 5750 5749 5747 5745 5744 5743 5741
5803 5803 5804 5804 5805 5805 5805 5805 5804 5804 5804 5804 5803 5802 5802 5801 5801 5800 5799 5798 5796 5795 5794 5792 5791 5790 5789 5787 5786 5785 5783 5782 5780 5779 5777 5775 5774 5772 5771 5769 5768 5766 5765 5764 5762 5760 5759 5757 5756 5754 5752 5751 5750 5750 5749 5748 5747 5746 5743 5741 5741 5740 5737
5801 5801 5802 5803 5803 5803 5803 5803 5802 5802 5802 5801 5800 5800 5799 5799 5798 5797 5796 5794 5793 5792 5790 5789 5788 5786 5785 5784 5782 5781 5780 5778 5776 5775 5773 5771 5770 5768 5766 5765 5764 5762 5761 5759 5758 5756 5755 5753 5751 5750 5748 5746 5745 5744 5744 5744 5744 5743 5740 5738 5737 5736 5734
5799 5800 5800 5801 5801 5801 5801 5801 5800 5800 5799 5799 5798 5797 5797 5796 5795 5794 5792 5791 5790 5788 5787 5786 5784 5783 5782 5780 5779 5777 5776 5774 5772 5771 5769 5767 5765 5764 5762 5761 5759 5758 5756 5755 5753 5752 5750 5749 5747 5746 5744 5742 5740 5739 5738 5738 5739 5739 5736 5734 5733 5732 5730
5797 5798 5798 5799 5799 5799 5799 5798 5798 5798 5797 5796 5796 5795 5794 5793 5792 5791 5789 5788 5787 5785 5784 5782 5781 5780 5778 5777 5775 5773 5772 5770 5768 5767 5765 5763 5761 5760 5758 5756 5755 5753 5752 5750 5749 5747 5746 5744 5743 5741 5739 5738 5736 5734 5733 5731 5733 5736 5732 5729 5729 5728 5726
5795 5796 5796 5797 5797 5797 5797 5796 5796 5795 5795 5794 5793 5792 5791 5790 5789 5788 5786 5785 5783 5782 5780 5779 5778 5776 5774 5773 5771 5769 5768 5766 5764 5763 5761 5759 5757 5756 5754 5752 5750 5749 5747 5746 5744 5742 5741 5739 5738 5736 5734 5733 5731 5729 5728 5726 5726 5730 5729 5724 5724 5724 5722
5793 5794 5794 5794 5794 5794 5794 5794 5793 5793 5792 5791 5790 5789 5788 5787 5786 5784 5783 5782 5780 5779 5777 5776 5774 5772 5770 5769 5767 5765 5764 5762 5760 5759 5757 5755 5753 5751 5750 5748 5746 5744 5742 5741 5739 5737 5736 5734 5732 5731 5729 5727 5726 5724 5722 5720 5720 5722 5724 5720 5718 5718 5717
5791 5792 5792 5792 5792 5791 5791 5791 5790 5790 5789 5788 5787 5786 5785 5784 5783 5781 5780 5778 5777 5775 5774 5772 5770 5768 5767 5765 5763 5762 5760 5758 5756 5754 5752 5750 5749 5747 5745 5743 5741 5739 5737 5736 5734 5732 5730 5729 5727 5725 5723 5722 5720 5718 5716 5714 5714 5715 5717 5716 5713 5711 5711
5790 5790 5790 5790 5789 5789 5789 5788 5788 5787 5786 5785 5784 5783 5782 5781 5779 5778 5776 5775 5773 5771 5770 5768 5766 5765 5763 5761 5759 5758 5756 5754 5752 5750 5748 5746 5744 5742 5740 5738 5736 5734 5732 5730 5728 5726 5725 5723 5721 5719 5718 5716 5714 5713 5710 5708 5707 5707 5709 5710 5708 5705 5705
5787 5787 5787 5787 5787 5786 5786 5785 5785 5784 5783 5782 5781 5780 5779 5778 5776 5774 5773 5771 5769 5768 5766 5764 5762 5761 5759 5757 5755 5753 5751 5750 5747 5745 5743 5741 5739 5737 5735 5733 5731 5729 5727 5724 5722 5720 5719 5717 5715 5713 5711 5710 5708 5706 5705 5702 5700 5699 5700 5702 5702 5699 5697
5784 5784 5784 5784 5784 5783 5783 5782 5782 5781 5780 5779 5778 5777 5776 5774 5772 5771 5769 5767 5766 5764 5762 5760 5758 5757 5755 5753 5751 5749 5747 5745 5743 5741 5738 5736 5734 5732 5729 5727 5725 5723 5721 5719 5716 5714 5712 5710 5708 5706 5704 5703 5701 5699 5698 5696 5694 5692 5691 5693 5695 5694 5691
5782 5782 5782 5781 5781 5780 5780 5779 5779 5778 5777 5776 5775 5774 5772 5771 5769 5767 5765 5764 5762 5760 5758 5756 5754 5752 5751 5748 5746 5744 5742 5740 5738 5736 5733 5731 5729 5726 5724 5722 5719 5717 5715 5712 5710 5708 5706 5704 5702 5699 5697 5696 5694 5692 5691 5689 5687 5685 5684 5684 5685 5686 5685
5779 5779 5779 5778 5778 5777 5777 5776 5776 5775 5774 5773 5772 5770 5769 5767 5766 5764 5762 5760 5758 5756 5754 5752 5750 5748 5746 5744 5742 5739 5737 5735 5733 5730 5728 5726 5723 5721 5719 5716 5714 5711 5708 5706 5703 5701 5699 5697 5695 5692 5690 5688 5686 5685 5683 5682 5680 5678 5677 5676 5676 5678 5678
5776 5776 5776 5776 5775 5774 5774 5773 5772 5771 5771 5770 5768 5767 5766 5764 5762 5760 5758 5756 5754 5752 5751 5748 5746 5744 5742 5739 5737 5735 5732 5730 5728 5725 5723 5720 5718 5715 5713 5710 5707 5705 5702 5699 5696 5694 5691 5690 5688 5685 5683 5680 5679 5677 5675 5674 5672 5671 5669 5669 5668 5668 5669
5773 5773 5773 5772 5772 5771 5770 5769 5769 5768 5767 5766 5765 5764 5762 5760 5758 5756 5754 5753 5751 5749 5747 5745 5742 5740 5738 5735 5733 5731 5728 5726 5723 5721 5718 5715 5713 5710 5707 5705 5702 5699 5695 5692 5689 5686 5683 5681 5679 5677 5675 5673 5671 5669 5667 5665 5664 5663 5661 5660 5660 5659 5660
5769 5769 5769 5768 5768 5767 5766 5766 5765 5764 5764 5763 5761 5760 5759 5757 5755 5753 5751 5749 5747 5745 5743 5741 5739 5736 5734 5732 5729 5727 5724 5721 5719 5716 5713 5710 5708 5705 5702 5699 5696 5693 5690 5686 5682 5679 5676 5672 5670 5668 5665 5663 5661 5660 5658 5657 5655 5654 5653 5652 5651 5651 5651
5766 5765 5765 5765 5764 5763 5763 5762 5761 5761 5760 5759 5757 5756 5755 5753 5751 5749 5747 5746 5744 5742 5739 5737 5735 5732 5730 5728 5725 5722 5719 5717 5714 5711 5708 5705 5702 5699 5696 5693 5691 5687 5684 5681 5678 5674 5670 5666 5662 5659 5656 5653 5651 5649 5647 5646 5645 5644 5643 5642 5642 5642 5642
5762 5762 5761 5761 5760 5759 5759 5758 5757 5757 5756 5754 5754 5752 5751 5749 5747 5746 5744 5742 5740 5738 5735 5733 5731 5728 5726 5723 5720 5717 5715 5712 5709 5706 5703 5700 5697 5693 5690 5687 5684 5681 5678 5675 5672 5668 5664 5660 5656 5652 5649 5646 5642 5639 5636 5634 5633 5632 5632 5631 5632 5632 5632
5758 5757 5757 5757 5756 5755 5754 5754 5753 5752 5751 5751 5750 5749 5747 5746 5744 5742 5740 5738 5736 5734 5731 5729 5727 5724 5721 5719 5715 5713 5710 5707 5704 5700 5697 5694 5691 5688 5685 5681 5678 5675 5671 5668 5665 5662 5658 5654 5650 5646 5642 5639 5635 5631 5628 5625 5622 5621 5620 5619 5620 5621 5621
5754 5753 5753 5752 5751 5751 5750 5749 5748 5748 5747 5747 5746 5745 5743 5742 5740 5738 5736 5735 5732 5730 5727 5725 5723 5720 5717 5714 5711 5708 5705 5702 5699 5695 5692 5689 5686 5683 5679 5676 5672 5669 5665 5662 5658 5655 5652 5648 5644 5640 5635 5631 5627 5623 5619 5616 5613 5611 5609 5607 5607 5608 5609
5750 5749 5749 5748 5747 5746 5745 5745 5745 5744 5744 5744 5743 5741 5740 5738 5736 5734 5733 5731 5728 5726 5724 5721 5718 5716 5712 5709 5706 5703 5700 5697 5694 5691 5688 5684 5681 5677 5674 5670 5667 5663 5660 5656 5652 5649 5645 5642 5638 5633 5628 5623 5619 5615 5610 5606 5603 5601 5599 5597 5595 5595 5596
5745 5745 5744 5744 5743 5742 5742 5742 5742 5742 5741 5740 5739 5738 5736 5734 5733 5731 5729 5727 5724 5722 5720 5717 5714 5711 5708 5705 5702 5699 5696 5693 5690 5687 5683 5680 5676 5673 5669 5665 5662 5658 5654 5650 5646 5642 5638 5635 5630 5626 5621 5615 5610 5606 5601 5596 5592 5589 5587 5585 5584 5583 5583
5741 5740 5740 5739 5739 5739 5739 5739 5739 5738 5737 5736 5735 5734 5732 5731 5729 5727 5725 5723 5721 5718 5716 5713 5710 5707 5704 5701 5698 5695 5692 5689 5686 5682 5679 5676 5672 5669 5664 5661 5657 5653 5649 5645 5641 5636 5632 5628 5624 5619 5613 5608 5602 5597 5592 5586 5580 5576 5574 5572 5571 5570 5571
5736 5736 5736 5736 5736 5736 5736 5736 5736 5735 5734 5733 5732 5730 5729 5727 5725 5723 5721 5719 5717 5714 5711 5709 5706 5703 5700 5697 5694 5691 5688 5685 5682 5678 5675 5671 5668 5665 5661 5656 5652 5648 5644 5640 5636 5631 5627 5622 5618 5612 5607 5601 5594 5588 5582 5576 5571 5566 5562 5560 5558 5557 5558
5733 5733 5733 5733 5733 5734 5734 5733 5733 5732 5730 5729 5728 5726 5725 5724 5722 5720 5718 5715 5713 5710 5707 5705 5702 5700 5697 5694 5691 5688 5685 5681 5678 5675 5671 5668 5664 5661 5657 5653 5649 5644 5640 5636 5631 5627 5622 5617 5612 5606 5600 5593 5586 5579 5573 5568 5563 5559 5555 5553 5550 5548 5548
5731 5731 5731 5731 5731 5731 5731 5730 5729 5728 5727 5726 5725 5723 5722 5720 5718 5716 5714 5712 5709 5706 5704 5701 5699 5696 5693 5690 5688 5685 5681 5678 5675 5672 5668 5665 5661 5657 5654 5650 5646 5641 5637 5632 5627 5622 5617 5611 5605 5599 5593 5586 5579 5573 5568 5563 5557 5553 5550 5548 5545 5543 5542
5729 5729 5729 5729 5728 5728 5727 5726 5726 5725 5724 5723 5721 5720 5718 5717 5715 5713 5710 5708 5705 5703 5701 5698 5695 5692 5690 5687 5684 5681 5678 5675 5672 5669 5665 5662 5658 5654 5651 5646 5642 5638 5633 5628 5623 5617 5612 5606 5600 5593 5586 5579 5573 5569 5565 5559 5554 5550 5548 5547 5544 5541 5541
5726 5726 5726 5725 5725 5724 5724 5723 5723 5722 5721 5719 5718 5716 5715 5713 5711 5709 5707 5704 5702 5700 5697 5695 5692 5689 5686 5684 5681 5678 5675 5672 5669 5666 5663 5659 5655 5652 5648 5644 5639 5634 5630 5625 5619 5614 5608 5602 5596 5589 5582 5575 5570 5567 5563 5558 5553 5551 5549 5547 5545 5542 5541
5723 5723 5723 5722 5722 5721 5721 5720 5720 5719 5717 5716 5715 5713 5711 5709 5707 5705 5703 5701 5699 5697 5694 5692 5689 5686 5683 5681 5678 5675 5672 5670 5666 5663 5660 5656 5653 5649 5645 5641 5636 5632 5627 5622 5616 5611 5605 5599 5593 5586 5580 5573 5569 5566 5563 5559 5555 5552 5550 5548 5546 5544 5542
5721 5720 5720 5720 5719 5719 5718 5717 5716 5715 5714 5713 5711 5710 5708 5706 5704 5702 5700 5698 5696 5694 5691 5689 5686 5683 5680 5678 5675 5672 5670 5667 5664 5661 5657 5654 5650 5646 5642 5638 5634 5629 5624 5619 5614 5609 5603 5598 5592 5586 5579 5572 5568 5565 5563 5560 5556 5553 5551 5549 5547 5545 5543